[[{"header":{"parameterUnit":"m.s-1","parameterCategory":1,"la1":30.2991,"la2":30.254,"lo1":-89.0895,"lo2":-89.0444,"dy":0.0017,"dx":0.0017,"nx":28,"ny":28,"refTime":"2023-10-25T03:00:00:Z","depth":0,"parameterNumber":2,"parameterNumberName":"U-component_of_WINDS"},"data":[0,0,0,0,0,0,0,0,0,0,0,0,0,0,0,0,0,0,0,0,0,0,0,0,0,0,0,0,0,0,0,0,0,0,0,0,0,0,0,0,0,0,0,0,0,0,0,0,0,0,0,0,0,0,0,0,0,0,-4.4726,-4.4727,0,-4.4809,-4.481,-4.4811,-4.4715,-4.4711,-4.4708,-4.4704,-4.4787,-4.4793,-4.4798,0,0,0,0,0,0,0,0,0,0,0,0,0,-4.4487,-4.4492,-4.4726,-4.4727,-4.4728,-4.4809,-4.481,-4.4811,-4.4716,-4.4711,-4.4707,-4.4703,-4.4786,-4.4792,-4.4799,0,0,0,0,0,0,0,0,0,0,0,0,0,-4.4583,-4.4494,-4.4726,-4.4691,-4.4688,-4.4809,-4.481,-4.4811,-4.4716,-4.4711,-4.4706,-4.4701,-4.4783,-4.4791,-4.48,-4.4959,0,0,-4.4825,-4.4829,0,0,0,0,0,0,0,0,-4.4577,-4.4591,-4.4695,-4.4693,-4.4691,-4.4746,-4.4756,-4.4861,-4.4718,-4.4706,-4.4704,-4.4698,-4.4778,-4.4786,-4.4814,-4.4963,-4.4966,-4.4826,-4.4831,-4.4835,-4.4837,0,0,0,0,0,0,0,-4.4571,-4.4587,-4.4759,-4.4696,-4.4694,-4.4671,-4.4678,-4.4775,-4.4771,-4.4706,-4.47,-4.4711,-4.4776,-4.4806,-4.4815,-4.4967,-4.4826,-4.4833,-4.4838,-4.4841,-4.5255,-4.526,0,0,0,0,0,0,-4.4568,-4.4582,-4.4756,-4.4761,-4.462,-4.4679,-4.4688,-4.4734,-4.477,-4.477,-4.4715,-4.4706,-4.4794,-4.4805,-4.4817,-4.5008,-4.4834,-4.4842,-4.4847,-4.5249,-4.5256,-4.5263,0,0,0,0,0,0,-4.4564,-4.4585,-4.4753,-4.467,-4.469,-4.4689,-4.4742,-4.4738,-4.4768,-4.4776,-4.4775,-4.4747,-4.479,-4.4806,-4.4925,-4.5009,-4.4846,-4.4854,-4.5242,-4.5251,-4.5259,-4.5389,0,0,0,0,0,0,-4.4557,-4.4584,-4.4643,-4.4672,-4.4695,-4.4859,-4.4747,-4.4744,-4.4783,-4.4772,-4.4805,-4.4806,-4.4787,-4.4913,-4.4934,-4.5018,-4.486,-4.5234,-4.5246,-4.5256,-4.5377,-4.5401,-4.5422,0,0,0,0,0,-4.4549,-4.4675,-4.4647,-4.4668,-4.477,-4.4864,-4.4877,-4.4853,-4.479,-4.4851,-4.4857,-4.4805,-4.4997,-4.4926,-4.4948,-4.5036,-4.5229,-4.5243,-4.5256,-4.5367,-4.5397,-4.5421,0,0,0,0,0,0,-4.4655,-4.4678,-4.4647,-4.4787,-4.4825,-4.4848,-4.4923,-4.4885,-4.4941,-4.4928,-4.4896,-4.4905,-4.5032,-4.5046,-4.4967,-4.5194,-4.5103,-4.5121,-4.518,-4.5208,-4.523,-4.5224,-4.4867,0,0,0,0,0,-4.4695,-4.477,-4.4786,-4.4908,-4.4929,-4.4924,-4.4964,-4.4943,-4.498,-4.4996,-4.501,-4.5048,-4.5118,-4.5163,-4.5227,-4.5379,-4.5386,-4.5451,-4.5474,-4.5492,-4.5508,-4.5592,-4.5622,-4.5307,-4.5307,-4.5306,0,0,-4.4777,-4.48,-4.4848,-4.493,-4.4957,-4.5036,-4.4937,-4.5024,-4.5083,-4.5008,-4.5123,-4.5136,-4.5176,-4.5314,-4.5375,-4.5329,-4.5597,-4.5509,-4.5524,-4.553,-4.5609,-4.5639,-4.5665,-4.5316,-4.5314,-4.5313,0,0,-4.4968,-4.4992,-4.5097,-4.5127,-4.517,-4.5166,-4.5192,-4.5222,-4.5228,-4.5343,-4.529,-4.5359,-4.5479,-4.5511,-4.5543,-4.5752,-4.5707,-4.5773,-4.589,-4.5972,-4.5997,-4.6019,-4.6095,-4.6122,-4.579,-4.579,-4.579,0,-4.5065,-4.5182,-4.5156,-4.5248,-4.5287,-4.5225,-4.5333,-4.5363,-4.5424,-4.5452,-4.5401,-4.5552,-4.5575,-4.572,-4.5772,-4.5799,-4.5828,-4.5768,-4.5996,-4.6017,-4.6037,-4.6109,-4.6138,-4.5798,-4.5797,-4.5796,-4.5795,0,-4.53,-4.5382,-4.5462,-4.5525,-4.5572,-4.5672,-4.5662,-4.5714,-4.569,-4.5692,-4.5812,-4.5838,-4.5907,-4.5941,-4.5917,-4.6084,-4.6055,-4.6,-4.5907,-4.6076,-4.6143,-4.617,-4.5809,-4.5806,-4.5804,-4.5802,0,0,-4.5556,-4.5607,-4.5636,-4.5665,-4.571,-4.5773,-4.5871,-4.5941,-4.5986,-4.6032,-4.6114,-4.6219,-4.617,-4.6207,-4.6187,-4.6259,-4.6426,-4.6196,-4.6197,-4.6239,-4.6613,-4.6654,-4.6686,-4.6397,-4.6402,-4.6406,-4.661,0,-4.5748,-4.5918,-4.59,-4.6061,-4.6138,-4.6084,-4.6169,-4.6207,-4.6213,-4.6279,-4.6285,-4.6361,-4.629,-4.6312,-4.6382,-4.6391,-4.65,-4.6376,-4.6473,-4.6477,-4.6464,-4.6721,-4.6763,-4.6954,-4.6636,-4.664,-4.6643,0,-4.5994,-4.605,-4.6221,-4.6257,-4.6288,-4.6366,-4.643,-4.6494,-4.6537,-4.6536,-4.658,-4.6549,-4.6649,-4.6556,-4.6694,-4.661,-4.6649,-4.666,-4.6667,-4.6674,-4.657,-4.6735,-4.7014,-4.7043,-4.6684,-4.6681,-4.6678,0,-4.6165,-4.6284,-4.6401,-4.6428,-4.6473,-4.6529,-4.655,-4.6588,-4.6632,-4.6688,-4.6717,-4.6784,-4.6821,-4.6874,-4.6863,-4.6796,-4.7005,-4.691,-4.7008,-4.7009,-4.7053,-4.705,-4.7342,-4.7079,-4.7079,-4.7078,-4.7078,0,-4.6381,-4.6487,-4.6479,-4.6552,-4.667,-4.665,-4.6768,-4.6782,-4.6817,-4.6892,-4.6849,-4.6921,-4.6902,-4.6973,-4.6965,-4.7082,-4.7099,-4.7102,-4.7098,-4.7106,-4.7105,-4.713,-4.7116,-4.7086,-4.7084,-4.7083,-4.7082,0,-4.659,-4.6589,-4.6714,-4.6749,-4.676,-4.6846,-4.6875,-4.6944,-4.6948,-4.7044,-4.7066,-4.7072,-4.7155,-4.715,-4.7242,-4.7237,-4.7381,-4.7362,-4.7367,-4.7363,-4.7461,-4.7452,-4.7778,-4.7821,-4.7531,-4.7534,-4.7536,0,-4.6728,-4.6809,-4.6853,-4.6901,-4.6926,-4.7004,-4.7049,-4.7034,-4.7084,-4.7141,-4.7204,-4.7283,-4.7344,-4.7479,-4.7492,-4.7564,-4.7546,-4.7656,-4.7556,-4.7562,-4.7548,-4.7544,-4.7552,-4.7675,-4.7678,-4.768,-4.7683,0,-4.6972,-4.6969,-4.7036,-4.7106,-4.7162,-4.7216,-4.7265,-4.7307,-4.7296,-4.7355,-4.7439,-4.7488,-4.7584,-4.7664,-4.7733,-4.7755,-4.7719,-4.7715,-4.7741,-4.7748,-4.7748,-4.7751,-4.742,-4.7706,-4.7704,-4.7702,-4.7701,-4.77,-4.715,-4.722,-4.7263,-4.7341,-4.7378,-4.7425,-4.7493,-4.7507,-4.7578,-4.7655,-4.7642,-4.7738,-4.7782,-4.7871,-4.7901,-4.7976,-4.7937,-4.7975,-4.7984,-4.7994,-4.8006,-4.7738,-4.7989,-4.7988,-4.7987,-4.7987,-4.7986,0,-4.7392,-4.7418,-4.7491,-4.7562,-4.7624,-4.7586,-4.7639,-4.7694,-4.7779,-4.7823,-4.7887,-4.7986,-4.8064,-4.8085,-4.8161,-4.8217,-4.8202,-4.8237,-4.8232,-4.8239,-4.8036,-4.8006,-4.8248,-4.8248,-4.8248,-4.8248,-4.8248,-4.8248,-4.7525,-4.7643,-4.7646,-4.7783,-4.7808,-4.7902,-4.7936,-4.7981,-4.8017,-4.813,-4.8195,-4.8209,-4.8246,-4.8324,-4.8395,-4.8399,-4.8429,-4.8472,-4.8469,-4.8279,-4.8253,-4.8228,-4.8199,-4.8478,-4.8479,-4.8666,-4.8668,-4.8669]},{"header":{"parameterUnit":"m.s-1","parameterCategory":1,"la1":30.2991,"la2":30.254,"lo1":-89.0895,"lo2":-89.0444,"dy":0.0017,"dx":0.0017,"nx":28,"ny":28,"refTime":"2023-10-25T03:00:00:Z","depth":0,"parameterNumber":3,"parameterNumberName":"V-component_of_WINDS"},"data":[0,0,0,0,0,0,0,0,0,0,0,0,0,0,0,0,0,0,0,0,0,0,0,0,0,0,0,0,0,0,0,0,0,0,0,0,0,0,0,0,0,0,0,0,0,0,0,0,0,0,0,0,0,0,0,0,0,0,-0.2779,-0.278,0,-0.2859,-0.286,-0.2861,-0.2959,-0.2961,-0.2962,-0.2964,-0.3041,-0.3042,-0.3042,0,0,0,0,0,0,0,0,0,0,0,0,0,-0.2707,-0.2708,-0.2779,-0.278,-0.2781,-0.2859,-0.286,-0.2861,-0.2959,-0.2961,-0.2963,-0.2964,-0.3041,-0.3042,-0.3042,0,0,0,0,0,0,0,0,0,0,0,0,0,-0.2758,-0.2708,-0.2779,-0.284,-0.2846,-0.2859,-0.286,-0.2861,-0.2958,-0.2961,-0.2963,-0.2965,-0.3041,-0.3042,-0.3043,-0.3001,0,0,-0.3045,-0.3046,0,0,0,0,0,0,0,0,-0.2755,-0.276,-0.283,-0.2835,-0.2842,-0.2902,-0.2863,-0.2908,-0.2958,-0.2915,-0.2964,-0.2966,-0.2993,-0.2998,-0.3007,-0.3005,-0.3008,-0.3045,-0.3046,-0.3046,-0.3047,0,0,0,0,0,0,0,-0.2751,-0.2757,-0.2811,-0.2831,-0.2838,-0.2861,-0.2871,-0.2872,-0.294,-0.2919,-0.2927,-0.2935,-0.2996,-0.3006,-0.301,-0.3009,-0.3045,-0.3046,-0.3047,-0.3047,-0.2974,-0.2972,0,0,0,0,0,0,-0.2739,-0.2754,-0.2808,-0.2813,-0.2804,-0.286,-0.2871,-0.288,-0.294,-0.2952,-0.2933,-0.2939,-0.3003,-0.3009,-0.3013,-0.2966,-0.3046,-0.3047,-0.3048,-0.2977,-0.2974,-0.2971,0,0,0,0,0,0,-0.2737,-0.2743,-0.2805,-0.2786,-0.2795,-0.2859,-0.2868,-0.288,-0.289,-0.295,-0.2962,-0.2931,-0.3005,-0.3012,-0.3003,-0.297,-0.3048,-0.3048,-0.298,-0.2976,-0.2972,-0.2874,0,0,0,0,0,0,-0.2735,-0.2742,-0.2728,-0.2785,-0.2796,-0.2795,-0.2866,-0.288,-0.2892,-0.2901,-0.2951,-0.2962,-0.3008,-0.3001,-0.3004,-0.2973,-0.3049,-0.2983,-0.2978,-0.2973,-0.288,-0.2867,-0.2856,0,0,0,0,0,-0.2732,-0.2697,-0.2727,-0.2733,-0.278,-0.2793,-0.2799,-0.2854,-0.2889,-0.2875,-0.2913,-0.296,-0.2974,-0.2999,-0.3003,-0.2972,-0.2985,-0.2979,-0.2974,-0.2886,-0.287,-0.2856,0,0,0,0,0,0,-0.2634,-0.2706,-0.2739,-0.2722,-0.2751,-0.281,-0.2793,-0.2836,-0.2854,-0.2862,-0.2928,-0.2938,-0.2921,-0.2946,-0.2973,-0.2934,-0.2986,-0.2981,-0.2918,-0.2903,-0.2891,-0.2885,-0.305,0,0,0,0,0,-0.2611,-0.2617,-0.2678,-0.2657,-0.267,-0.2729,-0.2736,-0.2776,-0.2808,-0.282,-0.2858,-0.2886,-0.2896,-0.2902,-0.2915,-0.2885,-0.2896,-0.2865,-0.2853,-0.2843,-0.2837,-0.282,-0.2807,-0.2953,-0.2953,-0.2953,0,0,-0.2562,-0.2602,-0.2601,-0.2638,-0.2665,-0.2668,-0.2738,-0.2739,-0.2741,-0.282,-0.2814,-0.2842,-0.2877,-0.2857,-0.285,-0.2878,-0.2799,-0.2836,-0.2827,-0.2827,-0.2813,-0.2799,-0.2787,-0.2949,-0.2949,-0.295,0,0,-0.2474,-0.2506,-0.2491,-0.2516,-0.2556,-0.2595,-0.2591,-0.2644,-0.2666,-0.2661,-0.2719,-0.2722,-0.274,-0.2761,-0.2775,-0.2693,-0.2736,-0.2696,-0.2632,-0.2615,-0.2603,-0.2593,-0.2561,-0.2549,-0.269,-0.269,-0.269,0,-0.2408,-0.2416,-0.2477,-0.2473,-0.2486,-0.2559,-0.2542,-0.2564,-0.2605,-0.2612,-0.2643,-0.2664,-0.2694,-0.2678,-0.2658,-0.2668,-0.2663,-0.269,-0.26,-0.2591,-0.2582,-0.2553,-0.2541,-0.2685,-0.2685,-0.2686,-0.2686,0,-0.2331,-0.2335,-0.2318,-0.2357,-0.2368,-0.2358,-0.2415,-0.2419,-0.2458,-0.2493,-0.2485,-0.2523,-0.2543,-0.2543,-0.2581,-0.2532,-0.2548,-0.2588,-0.2642,-0.2562,-0.2535,-0.2524,-0.2677,-0.2679,-0.268,-0.2682,0,0,-0.2183,-0.2256,-0.2248,-0.2265,-0.2314,-0.2318,-0.231,-0.2331,-0.2332,-0.2358,-0.2351,-0.2363,-0.24,-0.2415,-0.2456,-0.2441,-0.237,-0.2483,-0.2485,-0.2459,-0.2316,-0.2283,-0.2269,-0.24,-0.2398,-0.2397,-0.2312,0,-0.2103,-0.2094,-0.2148,-0.2124,-0.2127,-0.2196,-0.2189,-0.2216,-0.2249,-0.2255,-0.2291,-0.2297,-0.2348,-0.2356,-0.2345,-0.2381,-0.2342,-0.2389,-0.2392,-0.2391,-0.2378,-0.2256,-0.2221,-0.2139,-0.2302,-0.23,-0.2299,0,-0.2007,-0.2028,-0.2004,-0.2053,-0.2056,-0.2049,-0.2071,-0.2077,-0.2109,-0.2133,-0.2149,-0.2196,-0.2189,-0.2241,-0.2231,-0.2261,-0.2266,-0.2283,-0.2282,-0.2282,-0.2338,-0.225,-0.2115,-0.2101,-0.2284,-0.2285,-0.2286,0,-0.1898,-0.192,-0.1909,-0.1922,-0.1979,-0.1971,-0.1994,-0.2029,-0.2037,-0.2057,-0.2062,-0.208,-0.2089,-0.2101,-0.215,-0.2184,-0.2133,-0.219,-0.215,-0.2149,-0.2135,-0.2134,-0.1996,-0.2142,-0.2142,-0.2142,-0.2142,0,-0.1801,-0.1783,-0.186,-0.1852,-0.1834,-0.1895,-0.1874,-0.1904,-0.1934,-0.1931,-0.1992,-0.1988,-0.2055,-0.2058,-0.2096,-0.208,-0.2084,-0.2102,-0.2112,-0.2095,-0.2092,-0.2097,-0.2103,-0.2139,-0.214,-0.214,-0.2141,0,-0.1675,-0.1726,-0.1718,-0.1772,-0.1785,-0.1768,-0.1814,-0.1808,-0.1844,-0.184,-0.1843,-0.1899,-0.1905,-0.1956,-0.1973,-0.1999,-0.1967,-0.199,-0.1956,-0.1962,-0.1919,-0.1921,-0.1776,-0.1759,-0.1918,-0.1917,-0.1915,0,-0.1608,-0.1596,-0.1649,-0.1652,-0.1672,-0.1677,-0.1686,-0.1745,-0.1752,-0.1786,-0.1775,-0.1787,-0.1799,-0.1805,-0.1846,-0.1859,-0.1881,-0.1829,-0.1883,-0.1865,-0.1876,-0.1875,-0.1873,-0.1817,-0.1815,-0.1813,-0.1812,0,-0.1483,-0.1509,-0.152,-0.1539,-0.1548,-0.1566,-0.1588,-0.1586,-0.1652,-0.1655,-0.1663,-0.1672,-0.169,-0.1699,-0.1719,-0.1741,-0.1785,-0.1795,-0.1786,-0.1767,-0.1747,-0.1754,-0.1922,-0.1797,-0.1799,-0.18,-0.18,-0.1801,-0.1383,-0.1374,-0.1409,-0.1419,-0.1442,-0.146,-0.1456,-0.1492,-0.15,-0.1519,-0.1554,-0.1555,-0.1586,-0.1617,-0.1635,-0.1636,-0.1662,-0.165,-0.1647,-0.1642,-0.1631,-0.1749,-0.164,-0.164,-0.1641,-0.1641,-0.1642,0,-0.1258,-0.1284,-0.1293,-0.1321,-0.1327,-0.1371,-0.1397,-0.1399,-0.14,-0.1425,-0.1436,-0.1443,-0.1452,-0.1493,-0.1506,-0.1499,-0.1519,-0.15,-0.1499,-0.1503,-0.1609,-0.1614,-0.1483,-0.1483,-0.1483,-0.1483,-0.1483,-0.1483,-0.1194,-0.1181,-0.121,-0.1208,-0.1234,-0.1237,-0.1247,-0.1263,-0.1283,-0.1289,-0.1297,-0.1325,-0.1355,-0.1371,-0.138,-0.1392,-0.1392,-0.1365,-0.1383,-0.1481,-0.1496,-0.151,-0.1515,-0.1366,-0.1366,-0.1278,-0.1277,-0.1276]}]]